Wind_Speed
24 24 23 22 20 18 16 15 14 12 10 8 10 10 8 5 4 6 8 10 12 12 14 12 10 9 11 12 14 13 10 9 11 13 12 9 8 11 16 16 17 18 19
24 24 22 19 18 17 16 13 12 11 11 12 12 9 5 2 4 6 7 9 13 13 14 12 9 10 11 12 13 13 12 10 10 13 16 12 10 10 16 20 20 20 21
24 22 20 18 15 14 13 12 12 14 15 14 9 5 3 2 5 6 8 11 12 12 14 15 10 10 12 12 13 13 13 13 11 17 21 18 16 16 22 23 26 28 22
22 20 18 17 16 13 12 13 16 16 15 11 7 5 1 3 5 7 9 7 7 11 12 13 11 10 10 10 11 12 15 16 16 24 21 21 21 22 28 33 32 31 39
20 20 19 16 13 11 12 16 17 17 12 9 7 3 1 4 6 6 4 6 9 13 13 11 11 10 11 10 11 14 18 20 20 25 26 25 28 36 32 32 37 40 35
22 19 16 14 11 12 13 16 16 15 10 8 6 2 3 6 6 4 4 6 8 10 11 11 12 12 11 10 11 16 20 21 24 26 28 27 33 29 34 31 35 36 33
19 16 14 13 12 13 12 18 19 13 10 7 4 1 4 6 5 3 5 6 7 8 9 12 13 12 10 11 14 19 18 17 19 24 27 30 34 32 28 37 38 37 36
14 12 10 11 12 16 17 20 16 11 8 7 4 1 3 4 3 4 5 6 6 8 7 11 10 12 11 15 20 20 16 13 17 21 22 29 33 29 28 38 37 37 34
12 10 10 10 15 16 18 16 13 10 9 7 4 2 3 3 3 4 4 5 7 8 6 9 16 13 13 19 24 24 21 17 17 18 19 24 24 23 33 34 36 34 32
11 9 11 10 14 14 16 14 13 10 9 7 5 2 1 2 3 4 3 6 8 9 10 11 11 14 15 19 25 25 27 24 21 21 20 18 20 27 35 34 32 26 24
9 12 11 11 14 13 13 14 10 8 8 7 6 4 1 3 4 5 5 6 8 8 12 15 16 14 19 21 24 25 24 24 21 21 23 29 33 33 31 26 22 16 17
10 12 12 13 15 12 10 10 7 6 7 8 7 5 4 5 6 6 6 6 8 13 19 20 19 15 19 21 21 21 23 21 26 32 33 34 35 31 26 21 19 18 16
12 12 14 14 13 11 7 7 5 6 7 8 9 7 7 7 8 8 7 9 10 17 20 19 17 17 18 19 20 21 23 27 33 37 34 31 28 25 22 16 19 20 14
13 14 15 14 12 9 7 4 4 5 6 6 8 9 8 10 11 11 9 12 14 18 21 19 18 19 18 20 20 23 25 28 34 32 28 26 24 21 21 21 22 20 13
15 14 13 12 10 8 7 6 7 9 7 5 6 8 10 10 11 11 8 14 17 19 22 22 22 23 23 23 24 24 28 26 22 26 22 24 21 19 18 19 15 17 15
17 15 13 11 9 7 7 10 11 11 10 8 8 9 9 10 11 12 10 13 17 19 21 22 23 24 25 23 21 21 20 21 20 20 20 20 21 20 19 20 16 15 14
17 14 15 12 9 8 9 12 10 11 9 9 8 9 10 11 11 11 12 13 18 18 18 20 21 22 23 22 21 22 19 18 19 17 19 20 21 20 22 16 15 14 14
17 13 13 12 12 9 9 12 9 9 7 7 8 9 10 11 10 12 14 15 18 19 18 18 18 19 20 21 21 19 16 18 20 18 18 19 20 19 19 17 16 16 15
19 15 15 13 13 11 9 10 10 9 5 6 9 9 11 12 11 11 12 12 15 17 18 19 19 17 15 15 17 20 21 19 21 22 21 20 21 21 19 18 17 18 18
19 15 13 13 14 14 12 10 11 10 6 7 8 7 8 11 11 11 12 13 14 12 12 13 13 16 17 18 19 22 23 23 21 20 20 22 21 20 19 19 19 18 19
19 17 15 13 12 14 15 14 11 10 9 6 5 4 3 4 6 8 9 11 12 13 13 13 13 12 12 13 15 20 21 22 23 23 22 23 23 23 23 21 21 21 22
20 18 16 14 14 13 13 14 14 11 9 8 8 6 5 4 4 4 4 6 10 12 13 14 14 13 13 15 16 17 19 21 23 25 28 28 28 29 28 26 25 25 24
16 17 14 14 13 13 11 11 12 13 11 10 10 9 7 6 6 5 6 6 7 7 10 13 16 18 18 18 19 19 21 23 24 26 27 28 28 27 27 28 28 28 28
12 15 16 15 13 10 8 7 6 9 9 7 8 11 11 11 11 12 12 13 14 14 15 15 15 16 18 20 22 24 25 24 24 25 26 27 29 30 33 32 31 32 33
15 12 14 14 12 11 10 8 7 7 7 8 9 9 9 11 11 11 11 12 13 14 16 17 19 20 22 24 26 26 27 28 28 29 30 32 34 34 32 32 34 36 37
16 14 14 14 14 13 11 10 9 8 8 8 9 10 10 9 9 11 11 12 12 12 13 13 14 15 16 17 19 22 24 27 29 30 32 34 32 33 34 37 39 41 40
Wind_Direction
143 143 145 146 147 150 154 157 163 173 185 191 173 170 171 191 225 240 240 241 227 231 224 231 224 210 204 195 194 193 186 187 178 181 177 183 185 186 186 178 171 172 178
143 143 143 145 149 152 157 165 173 177 171 159 153 156 168 218 254 265 250 251 236 223 213 209 215 203 193 193 195 198 200 183 173 172 168 163 152 162 163 164 157 157 168
143 144 143 145 150 157 166 174 174 165 154 148 146 154 162 278 290 291 279 273 263 232 215 205 205 194 189 189 189 189 193 182 166 165 162 162 146 156 152 151 155 157 151
142 141 137 133 138 146 153 158 157 154 149 146 148 154 332 321 327 317 307 270 221 185 184 198 200 198 192 199 197 189 181 167 168 163 163 159 154 155 153 152 150 158 156
138 138 139 137 136 144 149 154 155 154 148 147 154 107 24 360 350 0 17 138 163 173 170 181 192 199 202 206 202 189 178 176 170 165 162 157 167 161 156 158 156 154 147
141 145 149 147 145 153 157 162 157 154 149 141 140 112 24 3 10 44 92 130 154 172 187 195 193 196 197 202 195 186 180 178 172 172 171 169 168 173 160 162 153 152 142
154 160 165 170 161 161 165 164 157 149 156 167 151 111 13 1 18 79 125 132 143 166 189 192 184 181 184 176 150 167 173 180 182 174 171 175 176 172 173 165 157 155 152
165 174 179 170 165 158 150 154 154 154 165 167 188 270 354 14 38 94 139 148 140 147 170 176 176 167 163 159 150 158 160 165 173 178 178 177 172 173 173 166 163 156 155
172 180 171 158 160 165 163 167 165 166 176 186 201 236 340 37 75 116 134 164 155 146 137 158 174 165 157 157 157 148 147 155 163 173 178 169 173 180 178 170 160 160 158
179 174 162 151 156 162 171 174 170 172 187 198 199 235 340 84 106 117 89 150 153 146 148 146 154 157 155 158 157 157 151 153 155 160 166 167 178 172 162 165 165 156 161
180 169 159 151 155 160 165 173 175 189 199 203 207 212 160 123 121 112 104 139 150 148 139 140 144 152 155 153 156 152 149 148 153 152 155 157 156 157 163 169 161 168 162
176 159 155 153 163 166 170 180 192 205 210 209 205 199 168 144 138 119 104 126 134 133 130 126 127 137 153 150 152 150 146 145 145 145 153 158 164 164 171 173 183 177 166
164 148 155 159 169 172 168 170 187 203 198 199 193 186 166 155 150 133 119 131 132 135 127 120 121 136 150 150 150 149 149 151 148 148 152 157 161 169 171 169 164 173 180
163 154 159 168 177 181 182 171 159 172 169 182 187 180 169 165 167 154 143 142 140 140 127 127 130 138 145 144 143 144 154 152 156 158 158 161 164 164 166 166 172 179 177
169 160 162 172 182 184 180 159 137 130 124 124 147 169 171 168 164 161 146 158 155 151 140 136 136 141 143 148 155 159 158 156 158 169 169 169 166 168 172 174 179 188 193
180 172 172 179 185 183 167 149 137 127 117 111 123 141 152 152 154 149 145 154 157 160 155 149 144 145 146 151 155 159 162 162 171 175 176 174 178 180 182 186 191 196 202
187 184 187 191 191 185 168 158 144 134 124 120 118 135 141 149 144 150 152 154 165 167 170 163 162 160 161 163 163 166 171 177 180 180 183 186 190 188 192 197 202 206 212
189 192 183 199 198 187 174 168 156 153 140 143 128 138 147 148 149 155 159 159 169 179 183 183 178 178 179 178 179 178 178 185 187 187 189 191 192 195 203 206 211 218 224
186 195 193 192 202 187 179 172 173 167 150 158 157 143 154 154 150 155 165 170 172 182 192 194 194 189 186 189 194 195 194 194 200 203 204 203 204 206 213 219 225 231 235
192 200 203 207 215 199 191 184 179 180 166 149 163 158 150 169 173 172 175 181 184 180 177 179 190 199 200 202 204 204 202 203 205 208 208 209 209 213 221 229 233 236 244
193 196 208 205 211 214 205 199 192 194 192 177 171 164 150 163 177 189 188 192 199 199 196 190 186 185 190 199 208 213 213 215 217 216 216 219 221 226 233 235 239 244 246
203 209 208 213 215 217 217 214 212 206 202 200 197 197 196 202 223 236 225 220 218 215 216 216 217 218 217 218 217 217 220 224 226 227 231 234 237 241 243 244 245 244 245
196 204 206 217 223 225 226 224 223 222 218 214 217 221 224 234 241 247 254 250 244 240 240 240 240 238 236 234 234 236 237 238 239 239 239 239 240 242 244 245 244 246 248
192 195 201 204 208 215 220 224 227 226 223 222 229 236 246 252 258 261 264 264 261 254 249 248 249 250 253 254 252 251 250 248 247 248 249 249 248 250 252 249 250 252 255
173 193 191 186 191 194 199 196 195 201 201 212 228 245 258 264 266 269 269 270 274 278 279 275 270 266 262 260 260 260 259 259 258 260 260 259 257 255 252 253 255 256 258
141 162 160 167 158 170 177 173 173 179 187 198 206 216 225 231 243 248 254 255 256 260 263 267 270 271 271 269 266 264 267 269 268 264 263 261 258 259 257 258 260 260 262
Height
1400 1405 1410 1415 1419 1424 1428 1432 1435 1438 1441 1443 1446 1449 1450 1452 1452 1453 1453 1453 1454 1455 1455 1460 1461 1461 1463 1466 1468 1471 1474 1476 1479 1482 1486 1489 1491 1493 1496 1500 1504 1507 1511
1404 1408 1413 1417 1421 1425 1429 1432 1435 1437 1440 1443 1446 1448 1449 1450 1450 1450 1450 1450 1449 1449 1452 1456 1458 1459 1461 1464 1467 1469 1472 1475 1478 1480 1485 1488 1491 1493 1496 1499 1504 1508 1511
1407 1411 1415 1419 1423 1426 1429 1431 1434 1437 1441 1444 1446 1448 1449 1449 1448 1447 1446 1444 1443 1447 1451 1454 1456 1458 1460 1462 1465 1468 1471 1474 1477 1479 1484 1487 1491 1494 1496 1501 1505 1510 1516
1410 1413 1417 1421 1424 1426 1429 1431 1435 1438 1442 1444 1446 1447 1448 1447 1446 1444 1442 1440 1442 1445 1448 1451 1454 1456 1459 1461 1464 1466 1469 1473 1476 1480 1484 1488 1491 1496 1499 1501 1507 1513 1516
1411 1415 1419 1423 1425 1427 1429 1432 1436 1439 1442 1444 1446 1446 1446 1446 1444 1442 1440 1440 1442 1443 1447 1450 1453 1455 1458 1460 1462 1464 1467 1470 1474 1479 1484 1487 1492 1495 1500 1505 1509 1514 1522
1414 1418 1421 1423 1426 1428 1430 1433 1437 1440 1443 1444 1445 1447 1447 1445 1444 1442 1442 1442 1443 1445 1447 1449 1451 1453 1456 1458 1460 1463 1466 1469 1473 1477 1482 1487 1492 1496 1499 1506 1512 1517 1523
1415 1419 1422 1424 1426 1428 1431 1434 1438 1441 1443 1445 1446 1447 1446 1445 1444 1443 1443 1444 1444 1444 1445 1447 1450 1453 1454 1456 1458 1463 1467 1472 1475 1478 1481 1486 1490 1496 1500 1505 1512 1518 1522
1416 1420 1422 1424 1426 1429 1432 1436 1439 1442 1444 1445 1447 1447 1446 1445 1444 1444 1444 1445 1445 1445 1445 1446 1449 1452 1454 1456 1459 1463 1469 1473 1476 1480 1484 1487 1493 1498 1503 1508 1513 1518 1525
1417 1420 1422 1424 1427 1430 1434 1437 1440 1442 1444 1446 1447 1447 1446 1445 1445 1445 1445 1445 1445 1445 1446 1447 1448 1452 1454 1457 1459 1464 1469 1474 1478 1482 1486 1491 1496 1499 1504 1510 1517 1522 1528
1418 1420 1422 1425 1428 1431 1434 1437 1440 1442 1444 1445 1446 1446 1445 1446 1446 1446 1446 1446 1446 1446 1447 1449 1452 1453 1456 1459 1462 1465 1468 1474 1478 1483 1489 1493 1497 1502 1510 1516 1520 1526 1530
1418 1420 1423 1426 1429 1432 1435 1437 1439 1441 1443 1444 1445 1445 1446 1446 1446 1447 1447 1447 1448 1448 1449 1450 1453 1456 1458 1462 1466 1469 1472 1475 1480 1485 1490 1496 1503 1509 1516 1521 1525 1530 1532
1418 1421 1424 1427 1430 1433 1435 1437 1438 1439 1441 1443 1444 1445 1446 1447 1448 1449 1449 1449 1450 1451 1452 1454 1456 1458 1462 1465 1469 1473 1476 1480 1483 1488 1494 1500 1506 1512 1517 1522 1526 1529 1533
1419 1421 1425 1428 1431 1433 1435 1436 1437 1439 1441 1442 1444 1445 1446 1447 1448 1450 1451 1452 1453 1454 1456 1458 1459 1463 1466 1469 1474 1477 1481 1484 1488 1493 1499 1504 1510 1514 1518 1522 1526 1530 1533
1419 1422 1425 1428 1431 1433 1435 1436 1437 1439 1440 1441 1443 1445 1446 1448 1449 1450 1452 1454 1456 1458 1460 1462 1465 1467 1470 1473 1477 1482 1486 1489 1493 1497 1501 1506 1511 1515 1519 1523 1527 1530 1534
1420 1423 1426 1429 1431 1433 1435 1436 1437 1439 1441 1442 1443 1444 1446 1448 1450 1452 1453 1455 1458 1461 1463 1465 1468 1471 1474 1477 1481 1485 1489 1493 1497 1501 1504 1508 1513 1516 1520 1523 1527 1530 1533
1419 1423 1426 1429 1431 1433 1435 1437 1439 1440 1441 1442 1443 1445 1447 1449 1451 1453 1455 1457 1461 1464 1466 1469 1472 1475 1478 1481 1484 1488 1491 1495 1499 1502 1506 1509 1513 1516 1519 1522 1526 1529 1532
1419 1422 1426 1429 1431 1434 1436 1438 1439 1441 1443 1444 1445 1446 1448 1450 1452 1454 1457 1460 1463 1466 1469 1472 1475 1477 1480 1483 1486 1490 1494 1497 1500 1503 1506 1509 1512 1515 1518 1521 1524 1527 1529
1418 1421 1425 1428 1431 1433 1436 1438 1441 1442 1443 1445 1446 1448 1450 1452 1454 1456 1458 1461 1464 1468 1470 1473 1476 1479 1481 1484 1487 1490 1494 1496 1499 1503 1506 1508 1511 1514 1517 1519 1522 1523 1525
1416 1420 1424 1427 1430 1434 1436 1438 1440 1443 1444 1445 1447 1449 1450 1453 1455 1458 1460 1462 1465 1467 1470 1473 1476 1479 1482 1485 1487 1489 1492 1495 1498 1501 1504 1507 1509 1512 1514 1517 1519 1520 1521
1414 1419 1423 1426 1428 1432 1435 1438 1440 1442 1444 1446 1448 1450 1451 1453 1455 1457 1460 1463 1465 1467 1470 1472 1474 1476 1479 1482 1484 1486 1489 1492 1495 1498 1501 1504 1506 1509 1511 1513 1514 1515 1515
1411 1416 1420 1424 1427 1430 1433 1436 1439 1442 1444 1446 1448 1450 1452 1454 1456 1458 1460 1462 1465 1467 1469 1471 1473 1476 1478 1480 1482 1484 1487 1489 1492 1494 1497 1499 1501 1503 1505 1506 1508 1508 1508
1410 1414 1418 1422 1425 1428 1431 1434 1437 1440 1443 1446 1448 1450 1452 1454 1456 1457 1460 1462 1464 1466 1468 1470 1472 1474 1476 1477 1479 1481 1483 1485 1487 1490 1492 1494 1495 1496 1498 1499 1499 1500 1500
1408 1412 1416 1420 1423 1426 1429 1432 1435 1438 1441 1444 1446 1449 1451 1453 1455 1456 1458 1460 1462 1463 1465 1467 1469 1471 1472 1474 1476 1477 1479 1481 1482 1484 1486 1487 1489 1490 1490 1490 1491 1491 1492
1406 1409 1413 1417 1420 1424 1427 1429 1432 1435 1438 1442 1444 1446 1448 1450 1452 1454 1455 1457 1458 1460 1462 1464 1465 1467 1468 1469 1470 1472 1473 1475 1476 1477 1479 1480 1480 1481 1482 1482 1483 1483 1483
1405 1408 1411 1415 1417 1420 1423 1425 1428 1430 1433 1436 1439 1442 1444 1446 1448 1449 1450 1452 1453 1454 1456 1457 1459 1461 1463 1464 1465 1466 1467 1469 1471 1472 1472 1472 1472 1473 1473 1473 1473 1473 1472
1401 1403 1412 1412 1414 1416 1419 1422 1424 1426 1428 1430 1433 1435 1438 1440 1441 1442 1444 1445 1447 1448 1449 1450 1451 1452 1453 1454 1455 1456 1457 1458 1459 1462 1463 1464 1464 1462 1462 1461 1461 1461 1460